Location: Newark
(46.7000°N, 60.6000°W)
Time: 23:26:09
(UTC+00:00)

Vanguard 3 - Pass Details

Date: 02 November 2020
Orbit: 508 x 3262 km, 33.3° (Epoch: 29 November)

Event Time Altitude Azimuth Distance (km) Brightness Sun altitude
Rises 09:15:08 0° 242° (WSW) 5,891 - -16.1°
Exits shadow 09:17:24 - 239° (WSW) 5,433 10.9 -15.7°
Reaches altitude 10° 09:18:41 10° 238° (WSW) 5,189 10.8 -15.5°
Maximum altitude 09:34:24 51° 169° (SSE) 3,693 10.6 -12.8°
Drops below altitude 10° 09:52:58 10° 101° (ESE) 6,044 13.3 -9.6°
Sets 09:57:30 0° 97° (E) 6,884 14.3 -8.9°
